Zurück zum Katalog

HJS-7D

AktivWissenschaftLEO
NORAD 65620·PAYLOAD·🇨🇳 China

Gestartet Sep 16, 2025 von Jiuquan Satellite Launch Center

Loading…

Nächste Überflüge (nächste 24 Stunden)

TLE

AktuellSource: Space-Track

Epoche: Sep 14, 2026, 09:22 UTC

1 65620U 25209D   26257.39055927 -.00000087  00000-0  73141-4 0  9995
2 65620  50.0018  31.7297 0003638 299.5567  60.4948 13.41483130 49616

Verfolge HJS-7D in Echtzeit mit AllMySat

Download on the App Store